Flag for U.S.A. Weather past 2 weeks in Vallejo, California, U.S.A.

Now
37 °F

Fog.


Feels Like: 37 °F
Forecast: 45 / 60 °F
Wind: No wind

Location: Napa County Airport

Current Time: Jan 26, 2015 at 1:03:56 AM

Latest Report: Jan 25, 2015 at 11:54 PM


Visibility: 4 mi

Pressure: 30.04 "Hg

Humidity: 100%

Dew point: 37 °F

Location of VallejoLocation

Historic Weather in Vallejo — Graph

°F

Vallejo temperature yesterday

Maximum temperature yesterday: 58 °F (at 2:54 PM)
Minimum temperature yesterday: 37 °F (at 11:54 PM)
Average temperature yesterday: 45 °F

Past Weeks' High & Low Weather Summary

 TemperatureHumidityPressure
High64 °F (Jan 13, 1:54 PM)100% (Jan 10, 11:54 PM)30.36 "Hg (Jan 10, 11:54 PM)
Low33 °F (Jan 21, 4:54 AM)45% (Jan 13, 1:54 PM)29.98 "Hg (Jan 25, 5:54 PM)
Average47 °F92%30.19 "Hg
* Reported Jan 10 11:54 PM — Jan 25 11:54 PM, Vallejo, Weather by CustomWeather, © 2014

Note: Actual official high and low records may vary slightly from our data, if they occured in-between our weather recording intervals... More about our weather records

Advertising

Vallejo weather history for previous 24 hours

 ConditionsComfort  
Time TempWeatherWind HumidityBarometerVisibility
11:54 PM
Jan 25
37 °FFog.No wind100%30.04 "Hg4 mi
10:54 PM39 °FFog.3 mph100%30.03 "Hg5 mi
9:54 PM40 °FFog.No wind100%30.02 "Hg6 mi
8:54 PM42 °FClear.No wind92%30.01 "Hg8 mi
7:54 PM43 °FClear.5 mph93%30.01 "Hg9 mi
6:54 PM48 °FClear.5 mph83%30.01 "Hg10 mi
5:54 PM48 °FClear.6 mph86%29.98 "Hg10 mi
4:54 PM54 °FSunny.10 mph80%29.99 "Hg8 mi
3:54 PM56 °FSunny.14 mph75%30.00 "Hg8 mi
2:54 PM58 °FSunny.14 mph67%30.01 "Hg10 mi
1:54 PM54 °FSunny.13 mph77%30.02 "Hg9 mi
12:54 PM50 °FSunny.15 mph86%30.06 "Hg8 mi
11:54 AM47 °FFog.17 mph90%30.09 "Hg6 mi
10:54 AM46 °FFog.15 mph93%30.12 "Hg3 mi
9:54 AM44 °FFog.15 mph96%30.14 "Hg2 mi
8:54 AM42 °FFog.14 mph100%30.14 "Hg1 mi
7:54 AM42 °FFog.8 mph100%30.14 "Hg1 mi
6:54 AM42 °FFog.15 mph100%30.14 "Hg2 mi
6:04 AM42 °FFog.17 mph100%30.16 "Hg2 mi
5:54 AM42 °FFog.14 mph100%30.13 "Hg2 mi
4:54 AM42 °FFog.20 mph100%30.13 "Hg1 mi
3:54 AM42 °FFog.10 mph100%30.14 "Hg1 mi
2:54 AM42 °FFog.18 mph100%30.13 "Hg1 mi
2:04 AM42 °FFog.23 mph100%30.16 "Hg2 mi
1:54 AM42 °FFog.23 mph100%30.12 "Hg2 mi
Weather by CustomWeather, © 2014

See weather overviewHow to use our weather pages